Flag for Germany Weather past 2 weeks in Haan, North Rhine-Westphalia, Germany

Now
75 °F

Scattered showers. Partly cloudy.


Feels Like: 78 °F
Forecast: 64 / 81 °F
Wind: 9 mph from Southeast

Location: Duesseldorf

Current Time: Aug 2, 2014 at 12:35:41 AM

Latest Report: Aug 2, 2014 at 12:20 AM


Visibility: N/A

Pressure: 29.77 "Hg

Humidity: 57%

Dew point: 59 °F

Location of HaanLocation

Historic Weather in Haan — Graph

°F

Haan temperature yesterday

Maximum temperature yesterday: 82 °F (at 6:50 PM)
Minimum temperature yesterday: 63 °F (at 12:20 AM)
Average temperature yesterday: 72 °F

Past Weeks' High & Low Weather Summary

 TemperatureHumidityPressure
High93 °F (Jul 19, 3:50 PM)100% (Jul 21, 11:20 PM)30.12 "Hg (Jul 21, 11:20 PM)
Low55 °F (Jul 31, 5:20 AM)23% (Jul 19, 4:50 PM)29.77 "Hg (Jul 19, 10:50 PM)
Average72 °F69%29.92 "Hg
* Reported Jul 17 11:20 PM — Aug 1 11:20 PM, Haan, Weather by CustomWeather, © 2014

Note: Actual official high and low records may vary slightly from our data, if they occured in-between our weather recording intervals... More about our weather records

Advertising

Haan weather history for previous 24 hours

 ConditionsComfort  
Time TempWeatherWind HumidityBarometerVisibility
11:20 PM
Aug 1
70 °FClear.7 mph73%29.77 "Hg10 mi
10:50 PM70 °FClear.8 mph78%29.77 "Hg10 mi
10:20 PM72 °FClear.6 mph69%29.77 "Hg10 mi
9:50 PM73 °FSunny.6 mph65%29.77 "Hg10 mi
9:20 PM73 °FSunny.6 mph61%29.77 "Hg10 mi
8:50 PM77 °FSunny.6 mph51%29.77 "Hg10 mi
8:20 PM79 °FSunny.7 mph51%29.77 "Hg10 mi
7:50 PM81 °FSunny.3 mph45%29.77 "Hg10 mi
7:20 PM81 °FSunny.5 mph42%29.77 "Hg10 mi
6:50 PM82 °FSunny.2 mph40%29.80 "Hg10 mi
6:20 PM81 °FSunny.6 mph42%29.80 "Hg10 mi
5:50 PM81 °FSunny.7 mph45%29.80 "Hg10 mi
5:20 PM81 °FSunny.5 mph42%29.80 "Hg10 mi
4:50 PM81 °FSunny.6 mph45%29.80 "Hg10 mi
4:20 PM81 °FPassing clouds.5 mph39%29.80 "HgN/A
3:50 PM81 °FSunny.6 mph42%29.80 "Hg10 mi
3:20 PM81 °FPassing clouds.6 mph39%29.83 "HgN/A
2:50 PM81 °FSunny.1 mph42%29.83 "Hg10 mi
2:20 PM79 °FSunny.3 mph42%29.83 "Hg10 mi
1:50 PM79 °FPassing clouds.5 mph42%29.83 "HgN/A
1:20 PM81 °FPassing clouds.5 mph42%29.83 "HgN/A
12:50 PM79 °FSunny.5 mph42%29.86 "Hg10 mi
12:20 PM79 °FSunny.6 mph42%29.86 "Hg10 mi
11:50 AM77 °FSunny.3 mph47%29.86 "Hg10 mi
11:20 AM75 °FSunny.5 mph54%29.86 "Hg10 mi
10:50 AM75 °FSunny.5 mph54%29.86 "Hg10 mi
10:20 AM73 °FSunny.6 mph57%29.89 "Hg10 mi
9:50 AM72 °FSunny.6 mph61%29.89 "Hg10 mi
9:20 AM70 °FSunny.6 mph64%29.89 "Hg10 mi
8:50 AM66 °FSunny.6 mph68%29.89 "Hg10 mi
8:20 AM66 °FSunny.7 mph68%29.86 "Hg10 mi
7:50 AM64 °FSunny.8 mph73%29.86 "Hg10 mi
7:20 AM64 °FSunny.9 mph73%29.86 "Hg10 mi
6:50 AM64 °FClear.6 mph73%29.86 "Hg10 mi
6:20 AM63 °FClear.6 mph73%29.86 "Hg10 mi
5:50 AM63 °FClear.5 mph73%29.89 "Hg10 mi
5:20 AM63 °FClear.2 mph73%29.89 "Hg10 mi
4:50 AM63 °FClear.7 mph73%29.89 "Hg10 mi
4:20 AM64 °FClear.7 mph68%29.89 "Hg10 mi
3:50 AM63 °FClear.7 mph73%29.89 "Hg10 mi
3:20 AM63 °FClear.7 mph77%29.89 "Hg10 mi
2:50 AM63 °FClear.6 mph77%29.89 "Hg10 mi
2:20 AM64 °FClear.2 mph73%29.89 "Hg10 mi
1:50 AM63 °FClear.2 mph77%29.89 "Hg10 mi
1:20 AM63 °FClear.3 mph77%29.89 "Hg10 mi
12:50 AM63 °FClear.5 mph77%29.92 "Hg10 mi
12:20 AM63 °FClear.3 mph77%29.92 "Hg10 mi
Weather by CustomWeather, © 2014

See weather overviewHow to use our weather pages